TJS-16

Last updated on Thu Jul 03 2025 00:02:49 GMT+0000 (Coordinated Universal Time)

1 63397U 25064A 25183.72891991 -.00000171 00000+0 00000+0 0 9998 2 63397 0.2000 74.2375 0002434 72.3999 189.2944 1.00271410 1185
UTC large
Height (km)
Speed (km/s)
/
Latitude / Longitude
Inclination (degrees)
Orbital Period (minutes)
Azimuth
Elevation
Range (km)
Doppler Factor

Next 0 passes for location: London (51.5072 / 0.1276)

Sorry there are no passes over London.